Skip Page Navigation
NASA JPL Caltech
NASA Logo - Jet Propulsion Laboratory + View the NASA Portal
+ Center for Near-Earth Object Studies
JPL Home Earth Solar System Stars & Galaxies Technology
JPL Solar System Dynamics
BODIES ORBITS EPHEMERIDES TOOLS PHYSICAL DATA DISCOVERY FAQ SITE MAP
JPL Small-Body Database Browser
Search: [ help ]  
434769 (2006 KC26)
Classification: Main-belt Asteroid          SPK-ID: 2434769
Ephemeris | Orbit Diagram | Orbital Elements | Mission Design | Physical Parameters | Discovery Circumstances | Close-Approach Data ]

[ show orbit diagram ]
Orbital Elements at Epoch 2459000.5 (2020-May-31.0) TDB
Reference: JPL 17 (heliocentric ecliptic J2000)
 Element Value Uncertainty (1-sigma)   Units 
e .1130052884839994 5.9441e-08  
a 2.724756610631537 3.5993e-08 au
q 2.416844703798436 1.7573e-07 au
i 13.63393468826757 6.7993e-06 deg
node 171.7384815784903 2.5484e-05 deg
peri 353.0349088376797 3.9037e-05 deg
M 94.80734573245806 2.8242e-05 deg
tp 2458567.857194123909
(2019-Mar-25.35719412)
0.00012866 TDB
period 1642.820067496839
4.50
3.2552e-05
8.912e-08
d
yr
n .2191353801445408 4.3421e-09 deg/d
Q 3.032668517464638 4.0061e-08 au
  Orbit Determination Parameters
   # obs. used (total)      163  
   data-arc span      5735 days (15.70 yr)  
   first obs. used      2003-09-18  
   last obs. used      2019-06-01  
   planetary ephem.      DE431  
   SB-pert. ephem.      SB431-N16  
   condition code      0  
   norm. resid. RMS      .61334  
   source      ORB  
   producer      Otto Matic  
   solution date      2019-Sep-24 07:35:36  

Additional Information
 Earth MOID = 1.42434 au 
 Jupiter MOID = 1.93921 au 
 T_jup = 3.307 
[ show covariance matrix ]

Ephemeris | Orbit Diagram | Orbital Elements | Mission Design | Physical Parameters | Discovery Circumstances | Close-Approach Data ]

Physical Parameter Table
Parameter Symbol Value Units Sigma Reference Notes
absolute magnitude H 16.5   n/a MPO437682  

434769 (2006 KC26)          Discovered 2006-Feb-02 by Spacewatch at Kitt Peak
Reference: Last Updated: 2015-06-04

[ hide close-approach data ]
Close-Approach Data   ...sorted by Date/Time (TDB)
Date/Time (TDB) Time Uncertainty
(days_HH:MM)
Body Nominal Distance (au) Minimum Distance (au) Maximum Distance (au) V-relative (km/s) V-infinity (km/s) JD (TDB) Time Uncertainty (minutes) Semi-major axis (km) Semi-minor axis (km) range-LOV angle (deg) N-sigma BP Orbit Ref. Reference Modified
1927-Feb-01 16:54 00:05 Jupiter 1.98969413713384 1.98969226791701 1.98969600638868 4.11080500127084 4.00590913357851 2424913.204034117 4.95871894680304 467.056945784665 25.480957507928 -78.6221239077403 2507566.08088741 T 17 CATAB v2.0f-lin.ifort 2019-Sep-24 07:35:38 2019-Sep-24 07:35
1963-Apr-10 09:51 00:03 Jupiter 1.934503979331 1.93450347913873 1.93450447952359 4.23419944433336 4.12949694123617 2438129.910451675 2.88527926526195 322.278842905535 22.8796743676584 89.3754409204447 2346664.09114923 T 17 CATAB v2.0f-lin.ifort 2019-Sep-24 07:35:38 2019-Sep-24 07:35
2093-May-28 04:58 00:04 Jupiter 1.95116684856134 1.95116592001055 1.95116777714118 4.19906356279573 4.09437581229402 2485660.706950686 4.16203485696758 447.558180896712 22.6978955273797 -84.6932770782934 2423363.60265272 T 17 CATAB v2.0f-lin.ifort 2019-Sep-24 07:35:38 2019-Sep-24 07:35
2129-Aug-02 14:11 00:06 Jupiter 1.94402931897873 1.94402795317561 1.94403068485744 4.21048463608393 4.10569990034982 2498875.091177970 6.1633306826035 664.014104094882 23.6675735078319 84.5071937428479 2266054.85688348 T 17 CATAB v2.0f-lin.ifort 2019-Sep-24 07:35:38 2019-Sep-24 07:35
Ephemeris | Orbit Diagram | Orbital Elements | Mission Design | Physical Parameters | Discovery Circumstances | Close-Approach Data ]
ABOUT SSD CREDITS/AWARDS PRIVACY/COPYRIGHT GLOSSARY LINKS
FirstGov 2020-Jul-12 00:36 UT
(server date/time)  
NASA Home Page
Site Manager:   Ryan S. Park
Webmaster  Alan B. Chamberlin